Location: Ferchesar
(52.6477°N, 12.4298°E)
Time: 05:10:51
(UTC+02:00)

Vanguard 3 - Pass Details

Date: 28 February 2021
Orbit: 508 x 3262 km, 33.3° (Epoch: 15 April)

Event Time Altitude Azimuth Distance (km) Brightness Sun altitude
Rises 15:18:33 0° 212° (SSW) 7,186 13.4 19.0°
Reaches altitude 10° 15:25:11 10° 200° (SSW) 5,985 12.8 18.3°
Maximum altitude 15:37:09 23° 159° (SSE) 4,334 11.2 16.9°
Drops below altitude 10° 15:46:17 10° 115° (ESE) 4,490 10.7 15.8°
Sets 15:50:15 0° 101° (E) 5,063 10.8 15.3°
